Location: ??
(35.5052°N, 139.7262°E)
Time: 18:13:45
(UTC+00:00)

Cosmos 1486 Rocket - Pass Details

Date: 20 June 2021
Orbit: 759 x 783 km, 74.1° (Epoch: 29 July)

Event Time Altitude Azimuth Distance (km) Brightness Sun altitude
Rises 13:10:02 0° 342° (NNW) 3,227 8.5 -27.1°
Reaches altitude 10° 13:12:25 10° 343° (NNW) 2,296 7.4 -27.3°
Enters shadow 13:17:17 78° 354° (N) 778 4.0 -27.7°
